Time,TemperatureF,DewpointF,PressureIn,WindDirection,WindDirectionDegrees,WindSpeedMPH,WindSpeedGustMPH,Humidity,HourlyPrecipIn,Conditions,Clouds,dailyrainin,SoftwareType,DateUTC
2013-06-25 20:01:00,83.0,71.0,-100.00,West,260,6.0,-999.0,67,0.00,,,-99.99,,2013-06-26 01:01:00,
2013-06-25 20:11:00,82.0,70.0,-100.00,WSW,245,6.0,9.0,68,0.00,,,-99.99,,2013-06-26 01:11:00,
2013-06-25 20:22:00,82.0,70.0,-100.00,WSW,240,4.0,9.0,68,0.00,,,-99.99,,2013-06-26 01:22:00,
2013-06-25 20:33:00,81.0,70.0,-100.00,WSW,255,5.0,8.0,69,0.00,,,-99.99,,2013-06-26 01:33:00,
2013-06-25 20:43:00,81.0,70.0,-100.00,West,265,4.0,7.0,70,0.00,,,-99.99,,2013-06-26 01:43:00,
2013-06-25 20:53:00,80.0,70.0,-100.00,WSW,245,3.0,6.0,71,0.00,,,-99.99,,2013-06-26 01:53:00,
2013-06-25 21:02:00,80.0,71.0,-100.00,WSW,255,2.0,6.0,72,0.00,,,-99.99,,2013-06-26 02:02:00,
2013-06-25 21:11:00,80.0,71.0,-100.00,WSW,245,2.0,4.0,73,0.00,,,-99.99,,2013-06-26 02:11:00,
2013-06-25 21:22:00,80.0,71.0,-100.00,WSW,250,2.0,4.0,73,0.00,,,-99.99,,2013-06-26 02:22:00,
2013-06-25 21:34:00,80.0,71.0,-100.00,WSW,245,2.0,4.0,74,0.00,,,-99.99,,2013-06-26 02:34:00,
2013-06-25 21:43:00,80.0,71.0,-100.00,WSW,240,2.0,4.0,74,0.00,,,-99.99,,2013-06-26 02:43:00,
2013-06-25 21:53:00,80.0,71.0,-100.00,SW,225,3.0,6.0,73,0.00,,,-99.99,,2013-06-26 02:53:00,
2013-06-25 22:02:00,80.0,71.0,-100.00,SW,230,3.0,6.0,73,0.00,,,-99.99,,2013-06-26 03:02:00,
2013-06-25 22:43:00,79.0,71.0,-100.00,SSW,210,6.0,9.0,77,0.00,,,-99.99,,2013-06-26 03:43:00,
2013-06-25 23:01:00,78.0,70.0,-100.00,SW,215,6.0,9.0,78,0.00,,,-99.99,,2013-06-26 04:01:00,
2013-06-25 23:12:00,78.0,71.0,-100.00,SW,220,6.0,9.0,79,0.00,,,-99.99,,2013-06-26 04:12:00,
2013-06-25 23:22:00,78.0,71.0,-100.00,SW,230,7.0,12.0,79,0.00,,,-99.99,,2013-06-26 04:22:00,
2013-06-25 23:33:00,78.0,71.0,-100.00,SW,225,7.0,12.0,79,0.00,,,-99.99,,2013-06-26 04:33:00,
2013-06-25 23:43:00,78.0,71.0,-100.00,SW,215,7.0,12.0,80,0.00,,,-99.99,,2013-06-26 04:43:00,
2013-06-25 23:53:00,77.0,71.0,-100.00,SW,220,7.0,13.0,80,0.00,,,-99.99,,2013-06-26 04:53:00,